STARLINK-1187, 45219

Orbit data source: Space-Track

STARLINK-1187, 45219 is a payload satellite owned by SpaceX/Seattle (US) in LEO that was launched on Mon, 17 Feb 2020 UTC via an FALCON 9 launch vehicle from the Air Force Eastern Test Range (AFETR). Payloads include a variety of satellites, spacecraft, and rockets equipped with specific instruments for various scientific and technological missions. These include communications satellites like Starlink; space stations such as the ISS; scientific satellites like the Hubble; Earth observation satellites from companies like Planet Labs, Umbra, and HawkEye 360; GPS; miniature CubeSats for education and research; and military/defense satellites.

Loading next visibility...
STARLINK-1187 details
Identifier
45219, 2020-012AT
Orbit
LEO
Last TLE update14 hours ago
Origin
Flag of USSpaceX/Seattle (US)
ManufacturerSpaceX/Seattle
MissionPartially operational Commercial Communications
Bus & MotorSTARLINK, Unknown motor
Mass260 kg wet, ~248 kg dry
Launch date (UTC)
2020-02-17 (5 years ago)
Launch vehicle
FALCON 9
Launch site
Air Force Eastern Test Range (AFETR)
Object type
Payload
Rocket body
Debris
Shape & HBRBox + 1 Pan, 8.86 m
Radar Cross Section13.562 m², Large (>1 m²)

Expand to show TLE details & history

TLE from 14 hours ago
0 STARLINK-1187
1 45219U 20012AT  24339.51512932  .00046943  00000-0  89046-3 0  9991
2 45219  53.0539 267.2801 0001983 115.4212 244.7000 15.47872353266120
Epoch: 2024-12-04T12:21Z
Definitive object data (Epoch: 2024-12-04T12:21:47.173Z)
Latitude-0.00004°
Longitude8.02434°
Altitude424.423 km
Speed7.658 km/s
True Right ascension17h 49m 07s
True Declination0° 00' 00"
Sunlit
Object was in daylight at TLE epoch
Visualization TLE readout
Latitude52.86286°
Longitude86.12604°
Altitude428.111 km
Speed7.662 km/s
Apparent Right ascension16h 20m 44s
Apparent Declination33° 20' 56"
Sunlit
Object is in partial shadow
Visualization observer readout
Local Sidereal Time00:37:29
Azimuth316.288° NNW
Elevation-0.415°
Doppler factor1
Orbital elements
Apogee altitude424.576 km
Perigee altitude421.878 km
Semi-major axis6,801.364 km
Eccentricity0.0001983
Inclination53.0539°
RAAN267.2801°
Arg. of periapsis115.4212°
True anomaly244.67946°
Mean anomaly244.7°
Eccentric anomaly244.68973°
Mean motion3.86945 °/min
BSTAR0.00089046
Orbital period93.04 mins
Loading maneuver chart data...

STARLINK-1187 Visibility forecast

Observer location: undefined°, undefined

Span
Click to sort rows by Start time (UTC) header in descending order
Start Az.
Max El. time (UTC)
Max El. Az.
Max El.
End time (UTC)
End Az.
4 mins2024-12-05 04:21:22.467Z347.671° N2024-12-05 04:22:22.467Z22.679° NE30.625°2024-12-05 04:25:22.467Z100.337° ESE
4 mins2024-12-05 21:04:22.467Z175.626° S2024-12-05 21:06:22.467Z124.01° SE22.73°2024-12-05 21:08:22.467Z80.471° E
4 mins2024-12-05 22:41:22.467Z281.018° WNW2024-12-05 22:42:22.467Z310.535° NW28.112°2024-12-05 22:45:22.467Z30.802° NE
|